Torna al catalogo

STARLINK-3936

AttivoComunicazioniVLEO
NORAD 52674·PAYLOAD·🇺🇸 United States

Lanciato May 18, 2022 da Cape Canaveral Space Force Station

Loading…

Prossimi Passaggi (prossime 24 ore)

TLE

AggiornatoSource: CelesTrak SupGP

Epoca: Sep 14, 2026, 14:08 UTC

1 52674C 22053U   26257.58937500 -.00006170  00000+0 -23273-3 0  2577
2 52674  53.1594 352.6109 0001308  77.8801 188.0351 15.26514841    16

Traccia STARLINK-3936 in tempo reale con AllMySat

Download on the App Store